Terminal Aerodrome Forecast
Issued by NWS Indianapolis, IN

Home | Current Version | Previous Version | Text Only | Print | Product List | Glossary On
Versions: 1 2 3 4 5 6 7 8 9 10 11 12 13 14 15 16 17 18 19 20 21 22 23 24 25 26 27
049
FTUS43 KIND 262029 AAB
TAFIND
TAF AMD
KIND 262029Z 2620/2724 08004KT P6SM FEW040 FEW080 BKN190
     FM271500 05005KT P6SM SCT035=

USA.gov is the U.S. government's official web portal to all federal, state and local government web resources and services.